Regional Weather Roundup
Issued by NWS Charleston, SC

Current Version | Previous Version | Graphics & Text | Print | Product List | Glossary On
Versions: 1 2 3 4 5 6 7 8 9 10 11 12 13 14 15 16 17 18 19 20 21 22 23 24 25 26 27 28 29 30 31 32 33 34 35 36 37 38 39 40 41 42 43 44 45 46 47 48 49 50
627
ASUS42 KCHS 201725
RWRCHS

REGIONAL WEATHER ROUNDUP
NATIONAL WEATHER SERVICE CHARLESTON SC
100 PM EDT WED SEP 20 2017

NOTE: "FAIR" INDICATES FEW OR NO CLOUDS BELOW 12,000 FEET WITH NO
SIGNIFICANT WEATHER AND/OR OBSTRUCTIONS TO VISIBILITY.

NOT ALL STATIONS ARE QUALITY CONTROLLED. USE DATA WITH CAUTION...
ESPECIALLY DEWPOINT OBSERVATIONS.

SCZ027-030-031-034>040-042>050-201800-
...SOUTHEAST SOUTH CAROLINA...

CITY           SKY/WX    TMP DP  RH WIND       PRES   REMARKS
N CHARLESTON   PTSUNNY   86  69  56 VRB5      30.02F HX  90
WATERFRONT PRK   N/A     85  71  62 VRB2      29.88S HX  90
JOHNS ISLAND   PTSUNNY   86  75  70 S7        30.03S HX  95
PINOPOLIS        N/A     82  73  74 VRB3      29.97F
MONCKS CORNER  FAIR      86  66  51 NW3       30.03S HAZE
SUMMERVILLE    FAIR      86  70  58 CALM      30.04S HX  90
BEAUFORT MCAS  CLOUDY    86  74  67 CALM      30.02F HX  94
BEAUFORT ARPT  FAIR      84  70  61 SW5       30.02F
HILTON HEAD IS PTSUNNY   86  72  62 S7        30.03F HX  92
WALTERBORO     MOSUNNY   86  70  58 NW3       30.03F HX  90
ALLENDALE      NOT AVBL

...SOUTHERN MIDLANDS AND PEE DEE...

CITY           SKY/WX    TMP DP  RH WIND       PRES   REMARKS
GEORGETOWN     FAIR      86  70  58 W8        30.04S HX  90
KINGSTREE      FAIR      86  66  51 CALM      30.02F
ORANGEBURG     SUNNY     89  67  47 VRB5      30.02F HX  92
BARNWELL       FAIR      90  72  55 CALM      30.03F HX  96
AIKEN          FAIR      86  64  48 S3        30.07F
MANNING        FAIR      86  54  32 SW7       30.03S
COLUMBIA       MOSUNNY   90  67  46 VRB7      30.02F HX  93
SUMTER         MOSUNNY   89  68  50 SW6       30.00F HX  92
FLORENCE       MOSUNNY   86  69  56 SW8       30.02F HX  90
MYRTLE BEACH   MOSUNNY   87  70  56 NW6       30.03  HAZE    HX  92
N MYRTLE BEACH SUNNY     86  67  52 SW6       30.01F

$$

GAZ063-065-086>088-099>101-113>116-118-119-134>141-150-201800-
...SOUTHEAST GEORGIA...

CITY           SKY/WX    TMP DP  RH WIND       PRES   REMARKS
SAVANNAH ARPT  PTSUNNY   90  73  57 VRB5      30.02F HX  98
HUNTER AAF     SUNNY     87  73  62 SW3       30.00F HX  94
FORT STEWART   CLOUDY    89  69  52 W5        30.00F HX  93
STATESBORO     CLOUDY    86  68  54 CALM      30.03S
SYLVANIA       CLOUDY    87  75  66 CALM      30.04F HX  96
CLAXTON        FAIR      89  74  60 CALM      30.02F HX  97

...CSRA...CENTRAL AND FAR SOUTHEAST GEORGIA...

CITY           SKY/WX    TMP DP  RH WIND       PRES   REMARKS
THOMSON        MOSUNNY   88  66  47 N8        30.09F HX  90
AUGUSTA-BUSH   SUNNY     90  71  53 VRB5      30.02F HX  96
AUGUSTA-DANIEL SUNNY     89  68  49 VRB6      30.04F HX  93
SWAINSBORO     FAIR      86  70  58 CALM      30.04F HX  90
VIDALIA        MOSUNNY   90  72  55 CALM      30.03F HX  96
EASTMAN        PTSUNNY   88  61  40 CALM      30.05F
HAZLEHURST     FAIR      91  60  34 SW5       30.02S HX  90
ALMA           MOSUNNY   89  71  55 W5        30.03F HX  95
WAYCROSS       MOSUNNY   89  69  51 S5        30.03F HX  93
JESUP          NOT AVBL
BAXLEY         FAIR      88  70  55 W5        30.02F HX  92
BRUNSWICK      SUNNY     90  64  43 W3        30.03F HX  91
SAINT SIMONS   SUNNY     88  68  51 SW7       30.03F HX  91

$$

SCZ027-028-034-036>038-045-046-048>050-GAZ119-141-201800-
...LAKE AND SUPPLEMENTAL COASTAL OBSERVATIONS...

STATION/POSITION TIME  TEMP    WIND        PRES    WAVE   SWELL
                       AIR SEA DIR/SP/G            HT/PER HT/PER/DIR
                 (UTC) (F)     (DEG/KT/KT) (MB)    (FT/S) (FT/S/D)
WINYAH BAY       1545   82     280/  6     1017.0
LAKE MURRAY      NOT AVBL
ACE BASIN NERRS  1545   86        CALM     1018.0
FORT PULASKI     1642   83 80  200/  5/  7 1017.2F
SAPELO ISLAND    1600   87        CALM     1017.0

$$

ANZ835-935-AMZ111-154-330-350-352-354-370-450-454-472-201800-
...C-MAN AND BUOY OBSERVATIONS...

STATION/POSITION TIME  TEMP    WIND        PRES    WAVE   SWELL
                       AIR SEA DIR/SP/G            HT/PER HT/PER/DIR
                 (UTC) (F)     (DEG/KT/KT) (MB)    (FT/S) (FT/S/D)
BUOY 41004       1650   80 82  290/  4/  6 1016.9F   4/ 9   3/100/ 9
BUOY 41008       1650   81 81  220/  6/  8 1016.9F   2/12   2/12
FOLLY BEACH CMAN 1700   82     200/  9/ 10 1017.6F
CAPERS NEARSHORE 1608   80 80  230/  8/ 10 1017.0F
FRIPP NEARSHORE  1608   80     220/  8/ 10 1024.3F


STATION/POSITION TIME  TEMP    WIND        PRES    WAVE   SWELL
                       AIR SEA DIR/SP/G            HT/PER HT/PER/DIR
                 (UTC) (F)     (DEG/KT/KT) (MB)    (FT/S) (FT/S/D)
5E ST. MARYS GA  1700      86                N/A     2/14   2/ 90/14
FRYING PAN BUOY  1650   79 82  290/ 10/ 12 1016.6F   3/11   2/ 80/11
BUOY 41025       1650   75 75  290/  8/ 10 1014.8S   5/11   5/ 60/11
CAPE LOOKOUT NC  1700   81     250/ 10/ 13 1015.2F
BUOY 41002       1650   80 81  300/  4/  6 1016.7F   8/12   8/ 20/12
BUOY 41010       1700      85  350/  6/ 10 1016.9
ST AUGUSTINE FL  1700   81 83   90/  7/  8 1017.9F


$$




USA.gov is the U.S. government's official web portal to all federal, state and local government web resources and services.